This demonstration page uses our WeatherBlox Daily Observations layout. Learn more.

Left ArrowRight Arrow

39.92423, -83.80882

Hourly Observations for March 17, 2022

Temp ( °F °C ) Dew Point ( °F °C ) Humidity (%) Winds ( mph kmh ) Pressure ( in mb ) Visibility ( mi km ) Precip ( " mm )
12:56 am 00:56 Clear 52 11.1 43 6.1 72 72 SSW 3 6 29.93 1014 10 16 0.00 0.00
1:56 am 01:56 Clear 48 8.9 43 6.1 83 83 Calm 29.93 1014 10 16 0.00 0.00
2:56 am 02:56 Clear 43 6.1 43 6.1 100 100 Calm 29.93 1014 10 16 0.00 0.00
3:56 am 03:56 Clear 41 5 40 4.4 96 96 SE 5 7 29.92 1013 10 16 0.00 0.00
4:56 am 04:56 Clear 38 3.3 38 3.3 100 100 Calm 29.92 1013 10 16 0.00 0.00
5:56 am 05:56 Clear 37 3 N/A N/A Calm 29.92 1013 10 16 0.00 0.00
6:56 am 06:56 Clear 40 4.4 40 4.4 100 100 Calm 29.94 1014 10 16 0.00 0.00
7:56 am 07:56 Sunny 36 2 N/A N/A Calm 29.97 1015 10 16 0.00 0.00
8:56 am 08:56 Sunny 43 6 N/A N/A Calm 29.97 1015 10 16 0.00 0.00
9:56 am 09:56 Sunny 55 12.8 47 8.3 74 74 SW 3 6 29.97 1015 10 16 0.00 0.00
10:56 am 10:56 Sunny 60 15.6 49 9.4 67 67 WSW 8 13 29.97 1015 10 16 0.00 0.00
11:56 am 11:56 Sunny 65 18.3 46 7.8 51 51 WNW 6 9 29.96 1015 10 16 0.00 0.00
12:56 pm 12:56 Sunny 68 20 42 5.6 39 39 VRB 5 7 29.95 1014 10 16 0.00 0.00
1:56 pm 13:56 Sunny 69 20.6 41 5 36 36 W 13 20 29.94 1014 10 16 0.00 0.00
2:56 pm 14:56 Sunny 70 21.1 41 5 35 35 W 8 13 29.92 1013 10 16 0.00 0.00
3:56 pm 15:56 Sunny 71 21.7 43 6.1 36 36 WNW 7 11 29.91 1013 10 16 0.00 0.00
4:56 pm 16:56 Sunny 71 21.7 42 5.6 35 35 WSW 12 19 29.91 1013 10 16 0.00 0.00
5:56 pm 17:56 Mostly Sunny 70 21.1 42 5.6 37 37 WSW 7 11 29.91 1013 10 16 0.00 0.00
6:56 pm 18:56 Mostly Sunny 68 20 44 6.7 42 42 WSW 7 11 29.93 1013 10 16 0.00 0.00
7:56 pm 19:56 Mostly Cloudy 63 17.2 43 6.1 48 48 SSW 3 6 29.95 1014 10 16 0.00 0.00
8:56 pm 20:56 Partly Cloudy 61 16.1 42 5.6 50 50 S 3 6 29.96 1014 10 16 0.00 0.00
9:56 pm 21:56 Clear 54 12.2 44 6.7 69 69 Calm 29.96 1015 10 16 0.00 0.00
10:56 pm 22:56 Partly Cloudy 52 11.1 44 6.7 75 75 Calm 29.97 1015 10 16 0.00 0.00
11:56 pm 23:56 Clear 50 10 44 6.7 80 80 SSE 5 7 29.96 1015 10 16 0.00 0.00

Powered by AerisWeather